| time (UTC) | temp C | wind direction | speed KPH | gust KPH | rain 1hr cm | rain 24hr cm | rain mn cm | humidity % | barometer mb |
| 20260508163022 | 12 | 295 | 3.2 | 14.5 | 0.00 | 0.00 | 0.00 | 42 | 1008.6 |
| 20260508161509 | 13 | 295 | 4.8 | 19.3 | 0.00 | 0.00 | 0.00 | 41 | 1008.5 |
| 20260508160006 | 12 | 293 | 3.2 | 14.5 | 0.00 | 0.00 | 0.00 | 43 | 1008.7 |
| 20260508154505 | 12 | 314 | 4.8 | 12.9 | 0.00 | 0.00 | 0.00 | 42 | 1008.9 |
| 20260508153010 | 12 | 311 | 3.2 | 20.9 | 0.00 | 0.00 | 0.00 | 43 | 1009.1 |
| 20260508151505 | 12 | 327 | 6.4 | 19.3 | 0.00 | 0.00 | 0.00 | 41 | 1009.1 |
| 20260508150001 | 12 | 303 | 1.6 | 12.9 | 0.00 | 0.00 | 0.00 | 42 | 1009.2 |
| 20260508144501 | 11 | 294 | 8.0 | 22.5 | 0.00 | 0.00 | 0.00 | 41 | 1009.3 |
| 20260508143105 | 12 | 292 | 8.0 | 17.7 | 0.00 | 0.00 | 0.00 | 39 | 1009.3 |
| 20260508141604 | 12 | 295 | 4.8 | 12.9 | 0.00 | 0.00 | 0.00 | 41 | 1009.5 |
| 20260508140056 | 12 | 303 | 4.8 | 11.3 | 0.00 | 0.00 | 0.00 | 42 | 1009.6 |
| 20260508134602 | 11 | 289 | 3.2 | 17.7 | 0.00 | 0.00 | 0.00 | 42 | 1009.7 |
| 20260508133100 | 11 | 307 | 6.4 | 20.9 | 0.00 | 0.00 | 0.00 | 40 | 1009.7 |
| 20260508131557 | 11 | 305 | 4.8 | 14.5 | 0.00 | 0.00 | 0.00 | 44 | 1009.7 |
| 20260508130104 | 11 | 325 | 0.0 | 4.8 | 0.00 | 0.00 | 0.00 | 50 | 1009.9 |
| 20260508124548 | 10 | 329 | 0.0 | 8.0 | 0.00 | 0.00 | 0.00 | 51 | 1009.9 |
| 20260508123044 | 10 | 331 | 1.6 | 6.4 | 0.00 | 0.00 | 0.00 | 53 | 1010.0 |
| 20260508121541 | 9 | 308 | 0.0 | 8.0 | 0.00 | 0.00 | 0.00 | 54 | 1009.9 |
| 20260508120037 | 8 | 328 | 1.6 | 9.7 | 0.00 | 0.00 | 0.00 | 58 | 1009.9 |
| 20260508114537 | 7 | 315 | 0.0 | 4.8 | 0.00 | 0.00 | 0.00 | 64 | 1009.9 |
| 20260508113047 | 6 | 314 | 0.0 | 4.8 | 0.00 | 0.00 | 0.00 | 67 | 1009.8 |
| 20260508111536 | 5 | 312 | 0.0 | 3.2 | 0.00 | 0.00 | 0.00 | 68 | 1009.8 |
| 20260508110047 | 5 | 305 | 0.0 | 0.0 | 0.00 | 0.00 | 0.00 | 70 | 1009.7 |
| 20260508104531 | 3 | 305 | 0.0 | 1.6 | 0.00 | 0.00 | 0.00 | 72 | 1009.6 |
| 20260508103036 | 3 | 347 | 0.0 | 1.6 | 0.00 | 0.00 | 0.00 | 75 | 1009.4 |
| 20260508101534 | 3 | 22 | 0.0 | 0.0 | 0.00 | 0.00 | 0.00 | 78 | 1009.2 |
| 20260508100025 | 3 | 215 | 0.0 | 0.0 | 0.00 | 0.00 | 0.00 | 75 | 1008.9 |
| 20260508094524 | 3 | 97 | 0.0 | 4.8 | 0.00 | 0.00 | 0.00 | 72 | 1008.9 |
| 20260508093039 | 3 | 296 | 0.0 | 0.0 | 0.00 | 0.00 | 0.00 | 73 | 1008.9 |
| 20260508091524 | 3 | 295 | 0.0 | 0.0 | 0.00 | 0.00 | 0.00 | 73 | 1008.7 |
| 20260508090028 | 3 | 295 | 0.0 | 0.0 | 0.00 | 0.00 | 0.00 | 74 | 1008.7 |
| 20260508084517 | 3 | 295 | 0.0 | 0.0 | 0.00 | 0.00 | 0.00 | 73 | 1008.7 |
| 20260508083020 | 4 | 295 | 0.0 | 0.0 | 0.00 | 0.00 | 0.00 | 70 | 1008.7 |
| 20260508081511 | 5 | 295 | 0.0 | 3.2 | 0.00 | 0.00 | 0.00 | 69 | 1008.3 |
| 20260508080008 | 5 | 295 | 0.0 | 4.8 | 0.00 | 0.00 | 0.00 | 67 | 1008.2 |
| 20260508074513 | 5 | 273 | 0.0 | 3.2 | 0.00 | 0.00 | 0.00 | 67 | 1007.8 |
| 20260508073006 | 5 | 273 | 0.0 | 1.6 | 0.00 | 0.00 | 0.00 | 68 | 1007.6 |
| 20260508071505 | 5 | 273 | 0.0 | 1.6 | 0.00 | 0.00 | 0.00 | 68 | 1007.5 |
| 20260508070002 | 6 | 273 | 0.0 | 1.6 | 0.00 | 0.00 | 0.00 | 66 | 1007.4 |
| 20260508064504 | 6 | 291 | 0.0 | 3.2 | 0.00 | 0.00 | 0.00 | 67 | 1007.6 |
| 20260508063059 | 5 | 295 | 0.0 | 0.0 | 0.00 | 0.00 | 0.00 | 67 | 1007.5 |
| 20260508061606 | 6 | 295 | 0.0 | 0.0 | 0.00 | 0.00 | 0.00 | 65 | 1007.5 |
| 20260508060055 | 6 | 295 | 0.0 | 1.6 | 0.00 | 0.00 | 0.00 | 66 | 1007.6 |
| 20260508054625 | 6 | 295 | 0.0 | 1.6 | 0.00 | 0.03 | 0.00 | 67 | 1007.8 |
| 20260508053051 | 6 | 295 | 0.0 | 0.0 | 0.00 | 0.03 | 0.00 | 67 | 1007.8 |
| 20260508051550 | 6 | 295 | 0.0 | 1.6 | 0.00 | 0.03 | 0.00 | 67 | 1008.0 |
| 20260508050047 | 7 | 295 | 0.0 | 0.0 | 0.00 | 0.03 | 0.00 | 63 | 1008.1 |
| 20260508044554 | 7 | 295 | 0.0 | 1.6 | 0.00 | 0.03 | 0.00 | 60 | 1008.2 |
| 20260508043042 | 7 | 287 | 0.0 | 1.6 | 0.00 | 0.03 | 0.00 | 60 | 1008.2 |
| 20260508041548 | 7 | 287 | 0.0 | 1.6 | 0.00 | 0.03 | 0.00 | 60 | 1008.3 |
| 20260508040034 | 8 | 285 | 0.0 | 3.2 | 0.00 | 0.03 | 0.00 | 58 | 1008.3 |
| 20260508034536 | 8 | 284 | 0.0 | 3.2 | 0.00 | 0.10 | 0.03 | 56 | 1008.2 |
| 20260508033037 | 8 | 302 | 1.6 | 4.8 | 0.00 | 0.10 | 0.03 | 55 | 1008.1 |
| 20260508031530 | 8 | 293 | 0.0 | 4.8 | 0.00 | 0.10 | 0.03 | 54 | 1008.1 |
| 20260508030039 | 9 | 305 | 1.6 | 6.4 | 0.00 | 0.10 | 0.03 | 54 | 1008.0 |
| 20260508024531 | 8 | 306 | 0.0 | 1.6 | 0.00 | 0.13 | 0.03 | 55 | 1008.1 |
| 20260508023039 | 9 | 306 | 0.0 | 3.2 | 0.00 | 0.13 | 0.03 | 52 | 1007.9 |
| 20260508021533 | 9 | 291 | 1.6 | 6.4 | 0.00 | 0.13 | 0.03 | 52 | 1007.9 |
| 20260508020028 | 10 | 306 | 0.0 | 3.2 | 0.00 | 0.13 | 0.03 | 51 | 1008.0 |
| 20260508014533 | 10 | 309 | 0.0 | 3.2 | 0.00 | 0.13 | 0.03 | 50 | 1007.8 |
| 20260508013027 | 10 | 303 | 0.0 | 1.6 | 0.00 | 0.13 | 0.03 | 49 | 1007.6 |
| 20260508011526 | 10 | 303 | 0.0 | 1.6 | 0.00 | 0.13 | 0.03 | 48 | 1007.3 |
| 20260508010037 | 11 | 303 | 0.0 | 4.8 | 0.00 | 0.13 | 0.03 | 46 | 1007.2 |
| 20260508004525 | 11 | 305 | 3.2 | 6.4 | 0.00 | 0.13 | 0.03 | 45 | 1006.9 |
| 20260508003024 | 11 | 300 | 0.0 | 9.7 | 0.00 | 0.13 | 0.03 | 43 | 1006.7 |
| 20260508001531 | 12 | 293 | 3.2 | 8.0 | 0.00 | 0.13 | 0.03 | 41 | 1006.6 |
| 20260508000025 | 12 | 304 | 0.0 | 6.4 | 0.00 | 0.13 | 0.03 | 41 | 1006.5 |
| 20260507234526 | 13 | 314 | 1.6 | 14.5 | 0.00 | 0.18 | 0.03 | 38 | 1006.3 |
| 20260507233023 | 13 | 302 | 1.6 | 14.5 | 0.00 | 0.18 | 0.03 | 37 | 1006.3 |
| 20260507231522 | 14 | 298 | 4.8 | 16.1 | 0.00 | 0.18 | 0.03 | 34 | 1006.1 |
| 20260507230020 | 15 | 319 | 6.4 | 19.3 | 0.00 | 0.18 | 0.03 | 33 | 1006.0 |
| 20260507224528 | 15 | 318 | 3.2 | 17.7 | 0.00 | 0.33 | 0.03 | 35 | 1005.9 |
| 20260507223021 | 15 | 313 | 1.6 | 16.1 | 0.00 | 0.33 | 0.03 | 35 | 1005.6 |
| 20260507221524 | 15 | 316 | 3.2 | 14.5 | 0.00 | 0.33 | 0.03 | 33 | 1005.6 |
| 20260507220021 | 15 | 296 | 1.6 | 8.0 | 0.00 | 0.33 | 0.03 | 33 | 1005.5 |
| 20260507214521 | 15 | 331 | 6.4 | 17.7 | 0.00 | 0.38 | 0.03 | 32 | 1005.4 |
| 20260507213028 | 15 | 298 | 4.8 | 17.7 | 0.00 | 0.38 | 0.03 | 32 | 1005.2 |
| 20260507211516 | 15 | 294 | 6.4 | 22.5 | 0.00 | 0.38 | 0.03 | 32 | 1005.3 |
| 20260507210038 | 16 | 300 | 9.7 | 14.5 | 0.00 | 0.38 | 0.03 | 31 | 1005.2 |
| 20260507204514 | 16 | 298 | 8.0 | 20.9 | 0.00 | 0.46 | 0.03 | 33 | 1005.2 |
| 20260507203020 | 15 | 323 | 6.4 | 24.1 | 0.00 | 0.46 | 0.03 | 33 | 1005.2 |
| 20260507201517 | 16 | 332 | 9.7 | 17.7 | 0.00 | 0.46 | 0.03 | 35 | 1005.1 |
| 20260507200022 | 16 | 273 | 6.4 | 24.1 | 0.00 | 0.46 | 0.03 | 34 | 1005.1 |
| 20260507194512 | 16 | 278 | 1.6 | 19.3 | 0.00 | 0.51 | 0.03 | 35 | 1005.2 |
| 20260507193020 | 16 | 305 | 6.4 | 14.5 | 0.00 | 0.51 | 0.03 | 34 | 1005.3 |
| 20260507191519 | 16 | 278 | 4.8 | 11.3 | 0.00 | 0.51 | 0.03 | 35 | 1005.6 |
| 20260507190005 | 15 | 296 | 6.4 | 19.3 | 0.00 | 0.51 | 0.03 | 33 | 1005.7 |
| 20260507184504 | 15 | 307 | 9.7 | 22.5 | 0.00 | 0.53 | 0.03 | 32 | 1006.0 |
| 20260507183004 | 15 | 312 | 4.8 | 19.3 | 0.00 | 0.53 | 0.03 | 34 | 1006.1 |
| 20260507181502 | 15 | 329 | 8.0 | 19.3 | 0.00 | 0.53 | 0.03 | 33 | 1006.3 |
| 20260507180001 | 15 | 7 | 6.4 | 20.9 | 0.00 | 0.53 | 0.03 | 35 | 1006.2 |
| 20260507174502 | 15 | 296 | 4.8 | 14.5 | 0.00 | 0.53 | 0.03 | 34 | 1006.2 |
| 20260507173134 | 15 | 305 | 4.8 | 22.5 | 0.00 | 0.53 | 0.03 | 36 | 1006.0 |
| 20260507171602 | 15 | 315 | 4.8 | 19.3 | 0.00 | 0.53 | 0.03 | 38 | 1006.2 |
| 20260507170056 | 15 | 298 | 4.8 | 14.5 | 0.00 | 0.53 | 0.03 | 37 | 1006.3 |
| 20260507164601 | 14 | 263 | 4.8 | 19.3 | 0.00 | 0.53 | 0.03 | 45 | 1006.6 |